Tracking 19224 objects as of 23-Jul-2018
HD Live streaming from Space Station
objects crossing your sky now

COSMOS 1375

Track COSMOS 1375 now!
10-day predictions
COSMOS 1375 is classified as:


NORAD ID: 13259
Int'l Code: 1982-055A
Perigee: 944.0 km
Apogee: 976.7 km
Inclination: 65.8 °
Period: 104.1 minutes
Semi major axis: 7331 km
RCS: 0.955 m2 (medium)
Launch date: June 6, 1982
Source: Commonwealth of Independent States (former USSR) (CIS)
Launch site: PLESETSK MISSILE AND SPACE COMPLEX (PKMTR)
aabbcc
Your satellite tracking list
Your tracking list is empty




NASA's NSSDC Master Catalog

Two Line Element Set (TLE):
1 13259U 82055A   18203.59403294 +.00000008 +00000-0 +82279-4 0  9990
2 13259 065.8324 081.5008 0022250 196.8008 163.2324 13.83015589814776
Source of the keplerian elements: AFSPC